FW1358 Weather Reports


Display with metric or nautical units.
time (UTC)temp
F
wind
direction
speed
MPH
gust
MPH
rain 1hr
in
rain 24hr
in
rain mn
in
humidity
%
barometer
mb
20260506082305 71 6 0.0 3.0 0.00 0.00 0.00 69 1007.9
20260506081803 71 129 0.0 3.0 0.00 0.00 0.00 68 1007.8
20260506080804 71 0 0.0 3.0 0.00 0.00 0.00 68 1007.7
20260506080303 71 32 0.0 3.0 0.00 0.00 0.00 67 1007.6
20260506073303 71 308 0.0 3.0 0.00 0.00 0.00 66 1007.8
20260506072803 71 293 1.0 10.0 0.00 0.00 0.00 66 1007.7
20260506072305 71 352 0.0 10.0 0.00 0.00 0.00 66 1007.6
20260506070803 71 340 0.0 12.0 0.00 0.00 0.00 65 1007.7
20260506060802 71 349 0.0 3.0 0.00 0.00 0.00 64 1008.0
20260506060303 71 338 0.0 3.0 0.00 0.00 0.00 64 1008.2
20260506051303 71 352 0.0 3.0 0.00 0.00 0.00 62 1008.7
20260506044803 71 29 0.0 2.0 0.00 0.00 0.00 62 1008.7
20260506043803 71 317 0.0 3.0 0.00 0.00 0.00 62 1009.0
20260506041303 71 298 0.0 0.0 0.00 0.00 0.00 62 1009.2
20260506040310 71 298 0.0 1.0 0.00 0.00 0.00 62 1009.6
20260506035803 71 82 0.0 0.0 0.00 0.00 0.00 62 1009.5
20260506035305 71 82 0.0 0.0 0.00 0.00 0.00 62 1009.5
20260506034803 71 82 0.0 1.0 0.00 0.00 0.00 62 1009.4
20260506032802 71 23 0.0 0.0 0.00 0.00 0.00 62 1009.5
20260506031803 71 23 0.0 1.0 0.00 0.00 0.00 62 1009.6
20260506031303 71 341 0.0 1.0 0.00 0.00 0.00 61 1009.7
20260506030302 71 334 0.0 1.0 0.00 0.00 0.00 61 1009.6
20260506025803 71 334 0.0 1.0 0.00 0.00 0.00 61 1009.7
20260506024802 71 328 0.0 1.0 0.00 0.00 0.00 61 1009.3
20260506023803 71 9 0.0 1.0 0.00 0.00 0.00 61 1009.4
20260506022803 72 161 0.0 5.0 0.00 0.00 0.00 60 1009.5
20260506021302 71 26 0.0 1.0 0.00 0.00 0.00 60 1009.7
20260506020802 71 24 0.0 0.0 0.00 0.00 0.00 59 1009.7
20260506020303 72 24 0.0 0.0 0.00 0.00 0.00 59 1009.6
20260506014803 72 42 0.0 0.0 0.00 0.00 0.00 59 1009.2
20260506014303 72 42 0.0 8.0 0.00 0.00 0.00 58 1009.3
20260506012803 72 266 0.0 1.0 0.00 0.00 0.00 58 1009.5
20260506005305 72 56 0.0 2.0 0.00 0.00 0.00 56 1009.4
20260506003802 72 120 0.0 1.0 0.00 0.00 0.00 56 1009.2
20260506002803 72 142 0.0 0.0 0.00 0.00 0.00 56 1009.1
20260506001303 72 142 0.0 1.0 0.00 0.00 0.00 56 1009.0
20260506000803 72 240 0.0 1.0 0.00 0.00 0.00 55 1009.1
20260506000303 72 240 0.0 1.0 0.00 0.00 0.00 56 1009.1
20260505235803 72 52 0.0 1.0 0.00 0.00 0.00 54 1009.2
20260505234803 72 85 0.0 1.0 0.00 0.00 0.00 54 1009.2
20260505234303 72 137 0.0 1.0 0.00 0.00 0.00 55 1009.2
20260505233303 72 346 0.0 7.0 0.00 0.00 0.00 53 1009.2
20260505232305 72 115 0.0 1.0 0.00 0.00 0.00 53 1009.6
20260505231803 72 115 0.0 1.0 0.00 0.00 0.00 53 1009.6
20260505231303 72 169 0.0 1.0 0.00 0.00 0.00 53 1009.7
20260505225803 72 239 0.0 0.0 0.00 0.00 0.00 52 1009.8
20260505224303 72 0 0.0 1.0 0.00 0.00 0.00 52 1009.7
20260505223302 72 136 0.0 3.0 0.00 0.00 0.00 51 1009.7
20260505215803 74 352 0.0 3.0 0.00 0.00 0.00 50 1011.0
20260505213803 74 325 0.0 3.0 0.00 0.00 0.00 48 1010.1
20260505213303 75 82 0.0 1.0 0.00 0.00 0.00 47 1009.7
20260505212803 75 82 0.0 1.0 0.00 0.00 0.00 47 1009.7
20260505211802 76 352 0.0 1.0 0.00 0.00 0.00 46 1009.7
20260505211303 76 343 0.0 1.0 0.00 0.00 0.00 45 1009.9
20260505210802 76 168 0.0 1.0 0.00 0.00 0.00 44 1009.9
20260505205803 76 55 0.0 5.0 0.00 0.00 0.00 45 1010.2
20260505204803 77 215 1.0 5.0 0.00 0.00 0.00 42 1009.9
20260505204303 78 0 0.0 5.0 0.00 0.00 0.00 43 1009.9
20260505202306 78 110 0.0 3.0 0.00 0.00 0.00 44 1010.0
20260505200803 77 5 0.0 1.0 0.00 0.00 0.00 47 1010.1
20260505200303 77 138 0.0 1.0 0.00 0.00 0.00 45 1010.2
20260505193802 75 122 0.0 2.0 0.00 0.00 0.00 51 1011.0
20260505193303 75 234 0.0 1.0 0.00 0.00 0.00 51 1011.1
20260505192803 75 234 0.0 1.0 0.00 0.00 0.00 51 1011.1
20260505191802 74 340 0.0 0.0 0.00 0.00 0.00 53 1011.4
20260505191303 73 340 0.0 1.0 0.00 0.00 0.00 55 1011.5
20260505185305 71 5 0.0 3.0 0.00 0.00 0.00 54 1011.4
20260505184803 71 119 0.0 3.0 0.00 0.00 0.00 56 1011.3
20260505184303 71 83 0.0 0.0 0.00 0.00 0.00 58 1011.3
20260505183303 71 83 0.0 2.0 0.00 0.00 0.00 58 1011.5
20260505182803 71 83 0.0 2.0 0.00 0.00 0.00 56 1011.7
20260505182305 71 340 0.0 3.0 0.00 0.00 0.00 56 1012.1
20260505181303 71 124 0.0 0.0 0.00 0.00 0.00 58 1012.2
20260505180302 71 124 0.0 1.0 0.00 0.00 0.00 57 1012.5
20260505175803 71 49 0.0 1.0 0.00 0.00 0.00 58 1012.4
20260505172803 71 25 0.0 1.0 0.00 0.00 0.00 58 1013.5
20260505172305 71 333 0.0 0.0 0.00 0.00 0.00 58 1013.5
20260505171803 71 333 0.0 0.0 0.00 0.00 0.00 56 1013.6
20260505165306 72 215 0.0 1.0 0.00 0.00 0.00 56 1013.8
20260505164303 72 27 0.0 3.0 0.00 0.00 0.00 56 1013.8
20260505162803 72 269 0.0 2.0 0.00 0.00 0.00 56 1014.0
20260505162305 72 254 0.0 3.0 0.00 0.00 0.00 57 1014.1
20260505161303 72 308 0.0 0.0 0.00 0.00 0.00 57 1014.2
20260505160802 72 308 0.0 0.0 0.00 0.00 0.00 57 1014.2
20260505151803 71 311 0.0 2.0 0.00 0.00 0.00 58 1013.8
20260505130303 63 275 0.0 1.0 0.00 0.00 0.00 66 1013.2
20260505124803 63 194 0.0 0.0 0.00 0.00 0.00 67 1013.3
20260505124303 62 194 0.0 0.0 0.00 0.00 0.00 68 1013.3
20260505123802 62 194 0.0 0.0 0.00 0.00 0.00 67 1013.5
20260505123303 62 194 0.0 0.0 0.00 0.00 0.00 67 1013.6
20260505122305 61 194 0.0 0.0 0.00 0.00 0.00 68 1013.6
20260505121802 61 194 0.0 0.0 0.00 0.00 0.00 67 1013.5
20260505121303 61 194 0.0 0.0 0.00 0.00 0.00 68 1013.5
20260505120803 61 194 0.0 0.0 0.00 0.00 0.00 68 1013.4
20260505120303 61 194 0.0 0.0 0.00 0.00 0.00 68 1013.2
20260505115803 61 194 0.0 0.0 0.00 0.00 0.00 68 1013.1
20260505115305 60 194 0.0 0.0 0.00 0.00 0.00 68 1013.0
20260505114302 60 194 0.0 0.0 0.00 0.00 0.00 68 1012.8
20260505112304 60 194 0.0 0.0 0.00 0.00 0.00 67 1012.5
20260505111303 60 194 0.0 0.0 0.00 0.00 0.00 67 1012.4
20260505110803 60 194 0.0 0.0 0.00 0.00 0.00 66 1012.5
20260505110303 60 194 0.0 0.0 0.00 0.00 0.00 67 1012.4
20260505101803 60 221 0.0 0.0 0.00 0.00 0.00 67 1011.9
20260505101303 60 221 0.0 0.0 0.00 0.00 0.00 67 1011.8
20260505095304 60 221 0.0 0.0 0.00 0.00 0.00 67 1011.8
20260505094303 60 221 0.0 0.0 0.00 0.00 0.00 66 1011.7
20260505092802 60 221 0.0 0.0 0.00 0.00 0.00 66 1011.8
20260505090803 61 221 0.0 0.0 0.00 0.00 0.00 66 1011.8
20260505085304 61 221 0.0 0.0 0.00 0.00 0.00 65 1011.8
20260505083803 61 221 0.0 0.0 0.00 0.00 0.00 65 1011.7
20260505083302 61 221 0.0 0.0 0.00 0.00 0.00 64 1011.6